TimeCST,TemperatureF,Dew PointF,Humidity,Sea Level PressureIn,VisibilityMPH,Wind Direction,Wind SpeedMPH,Gust SpeedMPH,PrecipitationIn,Events,Conditions,WindDirDegrees,DateUTC
12:53 AM,55.0,48.9,80,30.18,10.0,Calm,Calm,-,N/A,,Partly Cloudy,0,2012-11-21 06:53:00
1:53 AM,52.0,48.0,86,30.17,10.0,Calm,Calm,-,N/A,,Clear,0,2012-11-21 07:53:00
2:53 AM,52.0,48.0,86,30.17,10.0,Calm,Calm,-,N/A,,Partly Cloudy,0,2012-11-21 08:53:00
3:53 AM,51.1,46.9,86,30.17,10.0,Calm,Calm,-,N/A,,Partly Cloudy,0,2012-11-21 09:53:00
4:53 AM,50.0,46.0,86,30.18,10.0,Calm,Calm,-,N/A,,Partly Cloudy,0,2012-11-21 10:53:00
5:53 AM,51.1,46.9,86,30.19,10.0,Calm,Calm,-,N/A,,Partly Cloudy,0,2012-11-21 11:53:00
6:53 AM,51.1,48.9,92,30.22,9.0,Calm,Calm,-,N/A,,Partly Cloudy,0,2012-11-21 12:53:00
7:53 AM,57.0,53.1,87,30.23,10.0,Calm,Calm,-,N/A,,Clear,0,2012-11-21 13:53:00
8:53 AM,63.0,50.0,63,30.25,10.0,WNW,4.6,-,N/A,,Partly Cloudy,290,2012-11-21 14:53:00
9:53 AM,66.9,48.0,51,30.25,10.0,NW,5.8,-,N/A,,Clear,310,2012-11-21 15:53:00
10:53 AM,72.0,50.0,46,30.23,10.0,NW,6.9,-,N/A,,Partly Cloudy,310,2012-11-21 16:53:00
11:53 AM,72.0,53.1,51,30.20,10.0,NNW,9.2,-,N/A,,Scattered Clouds,340,2012-11-21 17:53:00
12:53 PM,73.9,53.1,48,30.18,10.0,NNW,8.1,-,N/A,,Scattered Clouds,340,2012-11-21 18:53:00
1:53 PM,75.0,53.1,46,30.16,10.0,North,4.6,-,N/A,,Scattered Clouds,360,2012-11-21 19:53:00
2:53 PM,75.0,51.1,43,30.15,10.0,NNW,8.1,-,N/A,,Scattered Clouds,330,2012-11-21 20:53:00
3:53 PM,73.9,51.1,45,30.15,10.0,North,3.5,-,N/A,,Scattered Clouds,350,2012-11-21 21:53:00
4:53 PM,70.0,50.0,49,30.16,10.0,Calm,Calm,-,N/A,,Scattered Clouds,0,2012-11-21 22:53:00
5:53 PM,66.9,51.1,57,30.17,10.0,Calm,Calm,-,N/A,,Partly Cloudy,0,2012-11-21 23:53:00
6:53 PM,63.0,52.0,67,30.17,10.0,Calm,Calm,-,N/A,,Partly Cloudy,0,2012-11-22 00:53:00
7:53 PM,57.9,52.0,81,30.19,10.0,Calm,Calm,-,N/A,,Partly Cloudy,0,2012-11-22 01:53:00
8:53 PM,57.9,51.1,78,30.20,10.0,Calm,Calm,-,N/A,,Partly Cloudy,0,2012-11-22 02:53:00
9:53 PM,55.9,51.1,84,30.21,10.0,Calm,Calm,-,N/A,,Clear,0,2012-11-22 03:53:00
10:53 PM,55.9,51.1,84,30.21,9.0,Calm,Calm,-,N/A,Fog,Shallow Fog,0,2012-11-22 04:53:00
11:53 PM,54.0,51.1,90,30.20,8.0,Calm,Calm,-,N/A,Fog,Shallow Fog,0,2012-11-22 05:53:00